EW6456 Weather Reports


Display with metric or nautical units.
time (UTC)temp
F
wind
direction
speed
MPH
gust
MPH
rain 1hr
in
rain 24hr
in
rain mn
in
humidity
%
barometer
mb
20260902000031 78 134 0.0 0.0 0.00 0.00 0.00 40 1006.7
20260901234527 78 55 0.0 0.0 0.00 0.00 0.00 33 1007.0
20260901233025 78 55 0.0 0.0 0.00 0.00 0.00 33 1007.0
20260901231528 78 55 0.0 0.0 0.00 0.00 0.00 33 1007.0
20260901230038 78 75 0.0 0.0 0.00 0.00 0.00 32 1006.9
20260901224521 78 91 0.0 0.0 0.00 0.00 0.00 32 1007.0
20260901223019 78 51 0.0 0.0 0.00 0.00 0.00 33 1007.1
20260901221516 78 82 0.0 0.0 0.00 0.00 0.00 32 1007.3
20260901220014 78 73 0.0 0.0 0.00 0.00 0.00 31 1007.5
20260901214507 78 81 0.0 0.0 0.00 0.00 0.00 31 1007.7
20260901213010 77 69 0.0 0.0 0.00 0.00 0.00 31 1008.0
20260901211501 77 133 0.0 0.0 0.00 0.00 0.00 31 1008.2
20260901210059 77 103 0.0 0.0 0.00 0.00 0.00 31 1008.3
20260901204553 77 256 0.0 0.0 0.00 0.00 0.00 34 1008.5
20260901203059 76 293 0.0 0.0 0.00 0.00 0.00 34 1008.6
20260901201547 74 214 0.0 0.0 0.00 0.00 0.00 37 1008.8
20260901200052 73 264 0.0 0.0 0.00 0.00 0.00 38 1008.9
20260901194541 73 230 0.0 0.0 0.00 0.00 0.00 39 1008.9
20260901193053 73 94 0.0 0.0 0.00 0.00 0.00 37 1009.0
20260901191537 73 203 0.0 0.0 0.00 0.00 0.00 38 1009.1
20260901190032 71 63 0.0 0.0 0.00 0.00 0.00 40 1009.2
20260901184532 71 261 0.0 0.0 0.00 0.00 0.00 44 1009.6
20260901183021 70 268 0.0 0.0 0.00 0.00 0.00 46 1009.9
20260901181519 69 322 0.0 0.0 0.00 0.00 0.00 48 1010.1
20260901180018 68 82 0.0 0.0 0.00 0.00 0.00 48 1010.1
20260901174547 68 132 0.0 0.0 0.00 0.00 0.00 49 1010.3
20260901173042 67 91 0.0 0.0 0.00 0.00 0.00 48 1010.5
20260901171537 67 83 0.0 0.0 0.00 0.00 0.00 48 1010.6
20260901170035 66 56 0.0 0.0 0.00 0.00 0.00 51 1010.8
20260901164530 64 303 0.0 0.0 0.00 0.00 0.00 52 1010.7
20260901163026 61 248 0.0 0.0 0.00 0.00 0.00 63 1010.8
20260901161519 59 235 0.0 0.0 0.00 0.00 0.00 67 1010.9
20260901160021 58 285 0.0 0.0 0.00 0.00 0.00 71 1010.8
20260901154517 57 307 0.0 0.0 0.00 0.00 0.00 76 1010.9
20260901153015 55 250 0.0 0.0 0.00 0.00 0.00 80 1010.9
20260901151502 53 251 0.0 0.0 0.00 0.00 0.00 85 1011.0
20260901150001 53 252 0.0 0.0 0.00 0.00 0.00 86 1011.1
20260901144600 52 257 0.0 0.0 0.00 0.00 0.00 87 1011.0
20260901143059 51 274 0.0 0.0 0.00 0.00 0.00 88 1011.1
20260901141600 49 263 0.0 0.0 0.00 0.00 0.00 91 1011.0
20260901140055 48 290 0.0 0.0 0.00 0.00 0.00 90 1010.9
20260901134559 48 290 0.0 0.0 0.00 0.00 0.00 90 1010.8
20260901133052 47 281 0.0 0.0 0.00 0.00 0.00 89 1010.8
20260901131550 0 0.0 0.0 0.00 0.00 0.00 1010.8
20260901130041 0 0.0 0.0 0.00 0.00 0.00 1010.9
20260901124538 0 0.0 0.0 0.00 0.00 0.00 1010.8
20260901123033 0 0.0 0.0 0.00 0.00 0.00 1010.8
20260901121534 0 0.0 0.0 0.00 0.00 0.00 1010.9
20260901120036 0 0.0 0.0 0.00 0.00 0.00 1010.9
20260901114520 47 273 0.0 0.0 0.00 0.00 0.00 85 1010.9
20260901113020 47 288 0.0 0.0 0.00 0.00 0.00 89 1010.9
20260901111518 47 248 0.0 0.0 0.00 0.00 0.00 90 1011.0
20260901110013 46 303 0.0 0.0 0.00 0.00 0.00 90 1011.0
20260901104510 47 262 0.0 0.0 0.00 0.00 0.00 88 1011.1
20260901103007 48 283 0.0 0.0 0.00 0.00 0.00 85 1011.1
20260901101504 50 283 0.0 0.0 0.00 0.00 0.00 82 1011.1
20260901094600 50 283 0.0 0.0 0.00 0.00 0.00 85 1011.4
20260901093104 49 282 0.0 0.0 0.00 0.00 0.00 88 1011.3
20260901091608 48 282 0.0 0.0 0.00 0.00 0.00 88 1011.5
20260901090024 49 282 0.0 0.0 0.00 0.00 0.00 85 1011.5
20260901084521 49 282 0.0 0.0 0.00 0.00 0.00 85 1011.6
20260901083022 50 282 0.0 0.0 0.00 0.00 0.00 83 1011.6
20260901081517 50 282 0.0 0.0 0.00 0.00 0.00 82 1011.8
20260901080011 52 295 0.0 0.0 0.00 0.00 0.00 76 1011.7
20260901074510 53 295 0.0 0.0 0.00 0.00 0.00 76 1011.8
20260901073037 52 295 0.0 0.0 0.00 0.00 0.00 77 1011.9
20260901071536 52 283 0.0 0.0 0.00 0.00 0.00 77 1012.1
20260901070011 53 276 0.0 0.0 0.00 0.00 0.00 76 1012.1
20260901064503 53 276 0.0 0.0 0.00 0.00 0.00 75 1012.1
20260901063058 55 31 0.0 0.0 0.00 0.00 0.00 71 1012.1
20260901061559 57 31 0.0 0.0 0.00 0.00 0.00 66 1012.2
20260901060057 59 10 0.0 0.0 0.00 0.00 0.00 58 1012.2
20260901054556 59 307 0.0 0.0 0.00 0.00 0.00 61 1012.5
20260901053056 59 304 0.0 0.0 0.00 0.00 0.00 61 1012.5
20260901051555 61 51 0.0 0.0 0.00 0.00 0.00 56 1012.5
20260901050054 63 51 0.0 0.0 0.00 0.00 0.00 51 1012.4
20260901044553 63 51 0.0 0.0 0.00 0.00 0.00 50 1012.4
20260901043051 64 46 0.0 0.0 0.00 0.00 0.00 49 1012.3
20260901041608 64 21 0.0 0.0 0.00 0.00 0.00 47 1012.3
20260901040056 63 321 0.0 0.0 0.00 0.00 0.00 49 1012.3
20260901034549 64 46 0.0 0.0 0.00 0.00 0.00 51 1012.1
20260901033046 64 47 0.0 0.0 0.00 0.00 0.00 50 1012.0
20260901031546 64 48 0.0 0.0 0.00 0.00 0.00 51 1011.9
20260901030045 65 49 0.0 0.0 0.00 0.00 0.00 52 1011.7
20260901024547 65 58 0.0 0.0 0.00 0.00 0.00 53 1011.5
20260901023044 66 63 0.0 0.0 0.00 0.00 0.00 52 1011.1
20260901021549 68 77 0.0 0.0 0.00 0.00 0.00 49 1011.1
20260901020041 69 43 0.0 0.0 0.00 0.00 0.00 44 1010.8
20260901014541 71 42 0.0 0.0 0.00 0.00 0.00 43 1010.7
20260901013038 73 52 0.0 0.0 0.00 0.00 0.00 40 1010.7
20260901011537 75 56 0.0 0.0 0.00 0.00 0.00 37 1010.9
20260901010037 76 70 0.0 0.0 0.00 0.00 0.00 32 1011.0
20260901004543 77 67 0.0 0.0 0.00 0.00 0.00 29 1011.0
20260901003006 77 113 0.0 0.0 0.00 0.00 0.00 30 1011.2
20260901001504 77 61 0.0 0.0 0.00 0.00 0.00 28 1011.0